Location: D�derode
(51.8092°N, 10.1065°E)
Time: 23:27:41
(UTC+00:00)

Cosmos 1869 Rocket - Pass Details

Date: 20 April 2021
Orbit: 603 x 634 km, 82.5° (Epoch: 14 May)

Event Time Altitude Azimuth Distance (km) Brightness Sun altitude
Rises 01:34:00 0° 332° (NNW) 2,898 7.4 -20.2°
Reaches altitude 10° 01:37:34 10° 302° (WNW) 1,978 6.1 -19.9°
Enters shadow 01:38:37 12° 288° (WNW) 1,862 5.8 -19.8°
